Theta_e
320 319 318 318 317 317 317 317 318 318 319 320 320 320 321 322 320 320 311 313 318 330 330 319 315 314 314 311 310 309 302 301 303 303 305 311 307 311 313 310 311 313 312 315 318
319 319 318 317 318 318 318 318 318 318 319 319 320 320 322 322 320 311 314 319 329 333 317 312 310 311 311 308 311 306 303 303 306 306 305 307 307 308 308 308 309 311 314 315 316
319 319 318 317 317 318 318 318 318 319 319 319 319 320 322 322 314 311 320 320 329 327 317 316 313 311 308 309 308 307 302 306 306 307 307 306 306 309 306 305 309 309 312 314 315
318 318 317 317 316 317 318 318 318 318 319 318 319 320 322 323 303 315 323 323 331 325 317 314 313 309 307 305 309 303 306 306 307 308 307 305 308 306 307 308 311 312 314 314 314
318 317 316 316 316 316 316 318 317 317 317 318 319 320 321 313 311 320 326 325 322 318 314 312 310 309 305 306 308 306 307 308 309 309 308 309 306 306 307 311 312 312 312 312 314
317 317 316 316 316 316 316 318 317 316 316 318 319 321 320 306 318 320 320 318 318 316 314 314 310 311 308 307 306 309 307 307 308 309 309 306 306 307 309 312 311 311 310 311 313
316 316 315 316 316 317 318 317 316 316 317 319 321 323 314 310 320 321 321 319 319 317 313 315 314 310 311 306 310 308 304 307 308 309 306 308 303 304 310 311 310 311 311 311 313
316 315 315 316 316 317 317 316 316 317 318 320 322 324 309 318 321 319 319 317 320 319 317 317 316 312 309 311 308 305 305 300 306 307 308 306 299 306 310 310 308 310 312 313 314
314 314 315 316 316 317 316 315 318 318 320 322 324 320 308 317 314 317 318 313 315 316 317 316 314 310 310 304 302 303 297 298 300 305 304 303 299 305 309 308 308 310 311 312 313
314 314 314 316 316 316 315 315 318 320 321 322 318 312 312 308 313 315 317 314 311 312 311 311 310 305 305 302 293 295 296 297 297 302 303 300 300 304 307 307 307 309 310 311 312
313 313 314 315 316 315 313 320 316 315 316 311 310 308 309 313 316 313 314 313 311 310 305 308 302 299 301 301 300 299 297 296 299 303 301 300 301 303 306 307 306 307 309 310 312
313 313 314 315 315 315 316 317 314 316 309 313 311 310 312 313 308 310 314 308 307 302 306 304 299 303 303 301 300 299 297 297 300 302 301 300 299 302 304 305 307 308 308 310 312
312 313 314 314 314 315 318 315 320 319 309 311 311 309 309 311 307 307 310 308 304 302 303 300 301 303 301 300 298 298 297 297 296 299 301 300 298 300 304 306 308 310 311 312 311
312 313 313 313 311 320 317 321 322 321 306 304 306 309 309 311 307 312 311 308 305 301 302 301 304 301 300 299 300 294 299 298 297 295 291 299 289 298 302 303 306 307 309 310 312
312 312 313 311 322 317 318 323 322 321 295 304 305 313 310 307 308 307 312 309 302 302 302 299 300 300 298 299 300 296 300 298 297 296 295 295 292 297 302 298 303 305 309 311 312
311 312 312 321 324 320 322 323 320 305 293 300 305 304 305 307 307 307 308 311 310 304 304 302 306 304 302 302 302 302 299 298 298 296 289 295 292 294 298 300 303 307 308 309 312
311 312 313 323 318 322 322 318 304 296 303 300 301 304 304 304 303 304 303 303 300 297 296 299 301 303 303 299 302 300 295 289 287 289 287 295 292 295 302 304 304 305 307 310 312
309 308 316 323 325 323 319 310 298 299 300 305 303 303 301 302 302 303 302 300 304 300 297 294 292 299 303 299 297 296 295 288 281 284 287 295 290 294 304 306 306 307 309 310 311
307 324 323 326 324 323 312 301 299 300 301 301 301 299 299 301 302 302 302 300 300 302 295 293 293 302 302 302 299 296 294 298 290 292 288 292 296 299 303 302 306 306 308 309 310
319 320 321 322 323 320 310 297 302 304 304 303 297 300 297 299 299 300 300 302 300 303 303 298 290 298 300 302 302 299 301 291 293 283 282 288 291 292 297 298 304 304 306 309 311
320 315 319 321 322 315 302 301 302 305 304 302 300 299 300 299 300 299 298 302 302 302 303 299 295 294 299 296 295 295 294 293 293 292 285 284 289 299 298 302 303 305 306 308 309
318 307 318 321 311 310 303 302 299 303 306 305 304 303 301 301 299 299 298 301 305 303 297 300 297 290 293 300 301 298 295 296 288 288 290 288 288 302 303 304 305 306 307 308 309
310 311 319 316 301 301 305 303 303 302 303 302 301 304 304 300 296 299 300 304 304 301 298 298 290 284 290 296 299 295 296 296 296 295 288 285 289 301 303 302 304 303 304 307 309
309 305 310 313 310 304 303 302 300 304 303 304 304 304 301 300 302 298 299 302 303 303 304 302 295 290 286 291 294 291 293 295 294 287 289 290 292 297 299 299 300 303 305 306 308
310 305 308 302 304 303 305 303 300 300 304 304 301 301 299 296 298 297 300 300 302 304 300 298 291 294 295 294 294 293 293 293 292 293 290 291 291 295 297 299 300 302 302 303 305
304 303 304 304 306 304 300 302 300 300 301 299 299 300 300 297 298 296 299 299 298 301 297 299 292 295 292 295 295 292 294 295 295 294 293 293 291 298 300 300 300 301 301 302 301
309 309 305 303 304 301 301 300 299 301 301 302 301 300 298 300 303 303 303 303 302 299 298 297 297 292 288 294 293 290 293 293 294 295 293 287 293 297 297 297 297 298 299 300 300
Wind_Speed
17 15 13 12 11 10 11 11 11 11 12 13 14 14 15 15 15 8 13 6 9 14 11 12 4 4 5 2 4 7 10 13 14 12 8 11 5 9 12 15 12 17 19 18 17
17 16 14 13 12 11 11 11 11 11 12 13 13 14 15 15 11 14 5 4 10 17 7 8 5 5 3 2 2 9 11 12 13 12 12 16 17 16 16 18 19 17 17 17 18
17 17 15 13 12 12 11 12 11 11 11 12 12 14 14 15 5 13 4 4 8 18 4 4 2 7 4 5 5 7 12 15 12 9 13 17 18 18 19 21 19 18 18 13 13
18 18 15 13 12 12 12 12 12 12 12 11 12 13 13 10 3 9 5 4 10 15 8 7 6 4 5 6 5 10 4 8 12 12 15 18 20 22 22 22 20 20 20 17 17
17 18 15 12 11 11 12 11 11 12 12 12 12 11 10 5 12 10 5 10 14 8 5 8 7 9 9 6 10 13 11 12 16 17 18 17 19 20 22 20 20 21 22 22 19
17 17 16 12 11 11 11 11 11 11 11 12 11 12 11 10 3 3 7 5 9 8 7 6 8 9 12 11 13 12 15 19 20 19 18 16 18 20 22 20 19 19 21 21 22
19 17 16 15 12 12 10 10 9 9 9 11 10 8 8 8 2 2 7 8 7 8 9 11 7 11 14 17 10 16 22 21 22 20 8 16 21 22 22 22 15 19 15 17 19
20 19 18 16 14 14 11 10 8 6 7 10 9 10 6 3 6 7 8 8 7 8 11 12 12 15 16 16 16 23 21 18 15 10 14 18 23 20 21 22 21 18 19 20 22
22 21 19 18 16 13 10 7 5 5 7 8 9 9 7 6 3 7 5 10 10 9 8 7 13 15 14 16 16 18 17 24 26 22 23 22 28 26 25 24 23 22 20 20 20
24 22 21 18 16 12 8 6 2 6 8 9 8 10 4 6 7 8 3 9 9 12 15 13 15 14 17 14 16 23 22 22 25 23 24 27 29 25 25 27 26 24 24 24 24
25 22 22 20 16 11 8 6 8 9 13 9 6 4 2 6 7 6 5 10 4 14 14 9 12 15 16 14 17 18 21 26 26 24 22 24 27 27 24 26 27 24 24 25 25
25 23 23 21 19 11 8 4 7 7 8 6 3 5 2 4 10 3 2 12 14 15 16 13 16 10 11 16 17 21 25 26 25 19 20 25 31 28 27 27 27 26 26 25 25
24 23 22 20 17 10 6 6 7 4 8 11 6 7 3 6 10 7 6 12 16 15 14 16 21 7 13 17 20 20 22 21 25 26 25 26 29 23 25 21 15 23 20 21 24
25 23 21 19 5 3 3 8 6 3 8 11 7 3 7 8 7 7 4 10 13 19 16 12 10 11 19 19 17 20 21 23 24 24 22 25 23 25 21 20 16 17 20 20 20
25 24 21 8 11 5 8 8 3 5 7 4 6 5 7 10 9 3 5 10 16 19 14 19 20 18 18 18 16 22 19 24 28 26 25 27 17 13 17 16 12 20 6 8 14
26 24 20 5 8 5 7 2 6 10 2 6 1 6 11 12 11 5 13 12 18 12 15 21 13 21 13 15 18 22 25 24 25 23 17 24 9 11 13 2 12 10 5 2 12
26 21 12 7 8 9 7 8 9 7 4 3 8 14 16 18 10 8 12 15 12 13 15 19 21 7 1 14 21 20 21 13 15 6 14 14 16 16 13 11 12 11 11 13 3
27 18 8 5 8 8 8 10 11 5 10 11 13 19 20 6 10 8 16 14 14 8 13 17 17 16 15 21 24 17 16 9 13 16 21 26 20 9 1 10 6 4 8 10 4
27 7 7 4 7 6 9 8 9 11 7 11 16 15 10 3 11 15 13 15 4 10 9 14 11 28 24 24 11 22 16 15 11 20 19 19 15 12 11 14 13 9 5 7 3
7 6 3 8 6 7 9 2 4 0 8 11 14 9 15 17 14 13 12 5 7 7 5 10 25 13 19 15 20 20 17 8 7 8 15 17 21 7 9 6 14 3 11 1 3
6 6 7 9 5 9 6 7 9 6 6 8 13 18 17 17 14 14 9 10 3 8 12 18 5 17 21 21 24 17 11 1 4 11 7 15 9 11 21 15 19 20 6 26 5
6 5 6 6 9 1 5 7 4 8 7 11 9 13 12 13 15 14 16 12 10 11 16 7 8 17 25 25 26 16 12 11 6 10 13 15 19 21 9 21 19 18 18 17 17
8 4 5 8 5 8 6 9 4 9 10 6 11 11 12 15 10 9 11 8 6 6 3 6 3 11 14 11 11 17 18 23 22 19 20 17 17 18 21 20 17 19 20 23 20
6 4 2 1 4 7 10 8 8 2 9 9 12 16 15 13 13 13 17 12 6 13 13 10 9 13 14 24 23 26 25 25 21 6 20 20 28 24 21 22 24 25 26 25 21
4 5 4 6 6 10 9 12 11 11 4 11 9 9 14 13 17 21 15 21 21 12 2 3 10 19 22 24 25 28 30 27 23 20 10 18 24 24 24 26 26 24 24 22 23
7 6 7 12 7 10 6 7 11 9 12 13 15 14 14 18 20 27 24 20 19 15 4 5 7 19 24 24 23 26 26 25 12 16 18 20 29 28 22 26 23 25 24 23 22
6 6 7 9 8 10 7 10 14 16 8 8 12 17 20 19 18 21 22 23 23 24 21 18 16 14 20 21 24 17 13 11 15 15 11 17 30 27 26 23 24 27 28 27 28
Wind_Direction
360 359 354 348 340 332 325 323 324 324 322 322 326 325 319 319 306 217 51 26 331 307 293 266 193 292 233 192 270 264 255 258 270 270 296 291 298 268 302 276 265 269 270 281 305
1 356 353 348 343 336 329 324 325 322 320 321 322 320 317 326 260 67 66 327 310 301 314 360 352 262 205 241 238 266 283 300 17 339 314 302 296 296 289 281 272 268 248 259 260
1 356 353 348 340 336 330 329 326 322 320 319 316 311 312 312 238 80 135 296 304 295 313 303 230 285 269 278 6 328 282 350 317 311 311 298 286 283 277 272 275 275 283 277 286
358 357 353 345 337 330 332 328 324 319 317 311 302 305 316 269 53 87 147 253 277 277 309 332 352 301 297 329 359 291 249 288 301 301 288 277 284 281 279 280 282 282 284 278 271
353 353 352 343 330 326 324 322 317 313 306 297 295 308 287 122 81 125 185 217 255 308 348 334 343 333 330 323 311 253 290 297 286 289 277 280 277 279 279 282 280 273 263 261 259
351 352 353 344 331 323 313 309 308 300 294 290 296 303 242 88 88 153 237 268 257 301 330 322 337 343 276 309 288 308 294 292 281 274 276 281 271 281 282 275 268 270 261 259 257
352 351 351 342 332 320 310 306 298 285 279 280 297 289 44 67 326 277 240 280 304 295 296 314 310 295 312 294 304 299 288 278 274 264 257 260 260 272 271 261 263 268 265 257 255
352 353 350 342 333 323 319 311 296 272 262 274 291 277 67 46 321 263 339 282 223 276 279 289 290 285 277 278 276 271 265 269 273 279 273 288 280 273 271 280 275 245 258 259 253
352 351 348 342 335 326 314 302 290 257 249 260 257 236 104 142 237 339 351 326 313 270 244 289 280 274 286 264 263 258 298 312 305 303 304 290 286 286 285 280 267 262 259 256 257
351 349 344 340 335 326 299 261 252 248 225 235 266 255 147 3 345 316 350 281 306 299 281 216 251 274 255 271 314 318 303 299 295 300 299 287 283 286 284 279 270 264 259 255 253
350 347 340 336 328 319 298 201 204 192 210 314 22 337 80 351 208 266 343 303 304 287 275 316 288 272 336 325 304 297 288 290 290 296 302 292 295 292 289 282 276 265 259 256 252
345 340 336 331 321 310 268 4 24 336 281 196 265 265 250 307 289 270 326 305 315 302 301 284 283 352 325 310 293 288 287 287 299 301 315 296 284 286 280 270 258 257 259 257 251
338 335 332 327 323 292 35 16 311 299 256 154 220 276 293 277 314 303 321 316 314 301 313 302 290 353 295 295 298 298 300 310 311 311 288 279 280 295 305 294 273 275 256 249 252
336 334 329 324 294 21 79 342 295 275 264 132 195 146 227 302 270 282 284 328 293 307 323 294 275 288 311 306 316 307 320 314 301 303 296 302 292 286 277 271 250 243 248 252 238
335 332 324 333 318 2 349 334 344 227 269 113 124 57 258 272 317 134 228 257 291 299 295 287 302 311 302 305 334 304 304 299 288 281 289 280 272 295 307 5 341 333 313 277 255
332 327 322 217 237 12 321 339 245 231 118 155 266 248 282 313 307 276 295 302 287 290 270 275 282 281 306 322 297 294 289 290 296 281 269 274 314 286 321 300 240 259 225 243 290
328 320 302 297 342 340 323 243 249 275 134 44 322 313 313 300 316 303 316 313 300 314 303 315 292 330 32 281 296 320 313 308 296 274 281 285 309 309 351 314 311 308 312 309 285
327 320 203 287 324 319 287 260 266 29 339 357 311 307 281 15 304 279 301 299 313 308 298 295 310 317 347 316 304 311 309 306 293 300 310 308 283 286 24 39 357 312 308 261 271
316 208 245 17 317 292 269 259 0 356 0 318 308 286 318 315 300 315 306 305 344 337 304 319 284 322 300 296 298 288 276 284 279 280 270 270 272 286 32 11 330 354 360 4 239
311 265 95 330 319 264 253 270 292 333 309 300 297 297 312 321 308 311 318 323 312 335 22 299 304 292 292 315 290 285 304 296 271 281 300 297 320 36 34 258 255 48 314 270 268
266 261 64 334 258 242 289 350 325 6 327 305 304 307 304 308 309 304 283 302 50 316 329 307 252 286 299 294 311 308 257 206 301 287 287 292 274 2 328 359 358 341 81 302 234
283 283 26 329 255 209 331 360 11 296 306 277 284 284 301 327 301 290 288 283 28 334 318 19 299 296 299 292 282 267 302 318 296 302 292 293 280 284 305 330 328 312 303 316 319
312 301 89 296 334 340 352 298 237 297 305 303 297 300 317 300 304 283 290 312 331 336 320 0 267 303 296 302 341 325 300 311 303 295 276 274 282 299 305 308 304 306 305 303 292
299 311 80 134 142 329 339 305 304 296 293 280 287 297 282 288 294 281 291 291 277 283 316 300 243 254 279 295 310 308 294 281 272 248 279 274 291 303 298 311 318 315 299 293 285
354 46 31 318 330 327 296 299 294 306 242 308 284 282 315 309 299 282 293 310 304 313 267 240 274 285 290 294 293 285 285 287 293 297 300 307 301 299 302 305 313 294 292 293 290
337 342 342 285 291 287 270 275 310 309 322 296 289 297 310 296 291 295 300 298 300 287 259 219 257 279 288 284 286 292 300 300 298 318 297 295 291 292 307 311 304 298 298 286 282
7 335 282 287 272 290 333 327 313 312 306 288 299 305 297 301 297 297 291 283 277 278 271 266 272 290 283 298 304 296 348 317 301 300 294 284 291 305 307 305 308 303 286 281 279